CZ-3C DEB, 39340

Orbit data source: Space-Track

CZ-3C DEB, 39340 is space debris in HEO originally from a launch on Sun, 31 Oct 2010 UTC launched from the Xichang Space Center, China (XSC). Debris objects in space refer to the collection of defunct objects orbiting the Earth. Examples of debris include non-operational satellites, rocket bodies, and fragments generated from explosions, collisions, or faulty payload assembly.

Loading next visibility...
Identifier
39340, 2010-057E
Orbit
HEO
Country
Flag of CNCN / PRC
Related business
Manufacturer
CALT
Mission
Spacecraft
Bus & Motor
Unknown
Mass
Unknown
Launch date (UTC)
2010-10-31 (15 years ago)
Launch vehicle
Unknown
Launch site
Xichang Space Center, China (XSC)
Object type
Payload
Rocket body
Debris
Shape & HBR
Unknown shape, 0.3 m
Radar Cross Section
Medium (>0.1 m² and <1 m²)

Expand to show TLE details & history
Last TLE update: 4 days ago

TLE from 4 days ago
0 CZ-3C DEB
1 39340U 10057E   25346.75569425  .00001609  00000-0  10310-1 0  9997
2 39340  19.7978  42.2614 7159587 288.8958  10.3834  2.30534222101016
Epoch: 2025-12-12T18:08Z
TLE epoch observation values (Epoch: 2025-12-12T18:08:11.983Z)
Latitude
0.0002°
Longitude
48.49342°
Altitude
3,228.65 km
Speed
8.155 km/s
True Right ascension
02h 48m 56s
True Declination
0° 00' 01"
Sunlit
Object was in daylight at epoch
Visualization orbit readout
Latitude
Unknown
Longitude
Unknown
Altitude
Unknown
Speed
Unknown
Apparent Right ascension
Unknown
Apparent Declination
Unknown
Sunlit
N/A
Visualization observer readout
Local Sidereal Time
08:40:56
Azimuth
Unknown
Elevation
Unknown
Doppler factor
Unknown
Orbital elements
Apogee altitude
35,164.887 km
Perigee altitude
498.447 km
Semi-major axis
24,209.804 km
Eccentricity
0.71596
Inclination
19.7978°
RAAN
42.2614°
Arg. of periapsis
288.8958°
True anomaly
70.89805°
Mean anomaly
10.3834°
Eccentric anomaly
32.30833°
Mean motion
0.57618 °/min
Orbital period
624.81 mins
BSTAR
0.01031
Loading maneuver chart data...
Computing Atmospheric mass density...
Loading historical data...
Loading historical data...
Loading historical data...
Loading historical data...
Loading historical data...
Loading historical data...
Loading historical data...

Documentation

Showing up to 5 results
|